Tracking 29090 objects as of 15-Jul-2024
HD Live streaming from Space Station
objects crossing your sky now

GEOTAIL

Track GEOTAIL now!
GEOTAIL is classified as:


NORAD ID: 22049
Int'l Code: 1992-044A
Perigee: 51,661.5 km
Apogee: 189,015.6 km
Inclination: 47.4 °
Period: 7,481.2 minutes
Semi major axis: 126709 km
RCS: 3.5 m2 (large)
Launch date: July 24, 1992
Source: Japan (JPN)
Launch site: AIR FORCE EASTERN TEST RANGE (AFETR)

Study the dynamics of the Earth's magnetotail over a wide range of distance
Your satellite tracking list
Your tracking list is empty




NASA's NSSDC Master Catalog

Two Line Element Set (TLE):
1 22049U 92044A   24201.23970023 -.00001013  00000-0  00000-0 0  9997
2 22049  47.4335  20.2565 5420038 240.4525   1.2316  0.19248153 14437
Source of the keplerian elements: AFSPC